KD4WXI Weather Reports


time (UTC)temp
F
wind
direction
speed
knots
gust
knots
rain 1hr
in
rain 24hr
in
rain mn
in
humidity
%
barometer
mb
20260508125528 59 20 0.0 0.0 0.00 0.00 0.00 83 1018.5
20260508125026 58 345 0.0 0.0 0.00 0.00 0.00 79 1018.7
20260508124524 57 9 0.0 0.0 0.00 0.00 0.00 85 1018.6
20260508124021 55 4 0.0 0.0 0.00 0.00 0.00 89 1018.7
20260508123520 53 356 0.0 0.0 0.00 0.00 0.00 98 1018.6
20260508123016 52 355 0.0 0.0 0.00 0.00 0.00 99 1018.6
20260508122513 51 341 0.0 0.0 0.00 0.00 0.00 99 1018.7
20260508122010 51 341 0.0 0.0 0.00 0.00 0.00 99 1018.7
20260508121508 50 342 0.0 0.0 0.00 0.00 0.00 99 1018.4
20260508121006 50 341 0.0 0.0 0.00 0.00 0.00 99 1018.6
20260508120503 49 341 0.0 0.0 0.00 0.00 0.00 99 1018.4
20260508120001 48 341 0.0 0.0 0.00 0.00 0.00 99 1018.5
20260508115458 48 344 0.0 0.0 0.00 0.00 0.00 99 1018.2
20260508114955 49 349 0.0 0.0 0.00 0.00 0.00 99 1018.0
20260508114452 46 349 0.0 0.0 0.00 0.00 0.00 99 1018.2
20260508113948 46 332 0.0 0.0 0.00 0.00 0.00 99 1018.2
20260508113446 45 2 0.0 0.0 0.00 0.00 0.00 99 1018.0
20260508112943 44 2 0.0 0.0 0.00 0.00 0.00 99 1017.9
20260508112439 43 2 0.0 0.0 0.00 0.00 0.00 99 1017.8
20260508111936 43 2 0.0 0.0 0.00 0.00 0.00 99 1018.2
20260508111433 42 2 0.0 0.0 0.00 0.00 0.00 99 1017.7
20260508110930 42 2 0.0 0.0 0.00 0.00 0.00 99 1017.6
20260508110428 42 2 0.0 0.0 0.00 0.00 0.00 99 1017.7
20260508105927 41 352 0.0 0.0 0.00 0.00 0.00 99 1017.4
20260508105424 41 352 0.0 0.0 0.00 0.00 0.00 99 1017.5
20260508104921 41 352 0.0 0.0 0.00 0.00 0.00 99 1017.3
20260508104419 41 350 0.0 0.0 0.00 0.00 0.00 99 1017.1
20260508103915 41 342 0.0 0.0 0.00 0.00 0.00 99 1017.0
20260508103412 41 341 0.0 0.0 0.00 0.00 0.00 99 1017.0
20260508102909 40 3 0.0 0.0 0.00 0.00 0.00 99 1016.8
20260508102408 41 5 0.0 0.0 0.00 0.00 0.00 99 1016.9
20260508101905 42 0 0.0 0.0 0.00 0.00 0.00 99 1016.6
20260508101402 42 356 0.0 0.0 0.00 0.00 0.00 99 1017.0
20260508100859 41 4 0.0 0.0 0.00 0.00 0.00 99 1016.8
20260508100358 42 1 0.0 0.0 0.00 0.00 0.00 99 1016.7
20260508095853 42 358 0.0 0.0 0.00 0.00 0.00 99 1016.6
20260508095352 42 358 0.0 0.0 0.00 0.00 0.00 99 1016.6
20260508094848 41 358 0.0 0.0 0.00 0.00 0.00 99 1016.5
20260508094345 41 358 0.0 0.0 0.00 0.00 0.00 99 1016.3
20260508093842 42 358 0.0 0.0 0.00 0.00 0.00 99 1016.4
20260508093339 43 358 0.0 0.0 0.00 0.00 0.00 99 1016.4
20260508092836 43 358 0.0 0.0 0.00 0.00 0.00 99 1016.5
20260508092334 43 358 0.0 0.0 0.00 0.00 0.00 99 1016.4
20260508091832 42 358 0.0 0.0 0.00 0.00 0.00 99 1016.3
20260508091328 42 358 0.0 0.0 0.00 0.00 0.00 99 1016.3
20260508090826 42 358 0.0 0.0 0.00 0.00 0.00 99 1016.3
20260508090326 42 358 0.0 0.0 0.00 0.00 0.00 99 1016.0
20260508085826 42 358 0.0 0.0 0.00 0.00 0.00 99 1016.2
20260508085323 44 358 0.0 0.0 0.00 0.00 0.00 99 1016.1
20260508084819 44 358 0.0 0.0 0.00 0.00 0.00 99 1016.1
20260508084317 43 358 0.0 0.0 0.00 0.00 0.00 99 1016.3
20260508083814 43 358 0.0 0.0 0.00 0.00 0.00 99 1016.1
20260508083312 43 358 0.0 0.0 0.00 0.00 0.00 99 1016.0
20260508082811 44 358 0.0 0.0 0.00 0.00 0.00 99 1016.2
20260508082309 44 358 0.0 0.0 0.00 0.00 0.00 99 1016.3
20260508081806 44 350 0.0 0.0 0.00 0.00 0.00 99 1016.1
20260508081303 44 359 0.0 0.0 0.00 0.00 0.00 99 1016.1
20260508080800 44 359 0.0 0.0 0.00 0.00 0.00 99 1016.1
20260508080258 44 359 0.0 0.0 0.00 0.00 0.00 99 1015.7
20260508075754 44 359 0.0 0.0 0.00 0.00 0.00 99 1015.6
20260508075251 45 359 0.0 0.0 0.00 0.00 0.00 99 1016.0
20260508074749 45 359 0.0 0.0 0.00 0.00 0.00 99 1015.6
20260508074246 45 359 0.0 0.0 0.00 0.00 0.00 99 1015.7
20260508073743 45 359 0.0 0.0 0.00 0.00 0.00 99 1015.7
20260508073241 45 359 0.0 0.0 0.00 0.00 0.00 99 1015.9
20260508072736 45 359 0.0 0.0 0.00 0.00 0.00 99 1015.6
20260508072233 45 359 0.0 0.0 0.00 0.00 0.00 99 1015.8
20260508071731 46 359 0.0 0.0 0.00 0.00 0.00 99 1015.7
20260508071229 46 359 0.0 0.0 0.00 0.00 0.00 99 1015.5
20260508070726 46 359 0.0 0.0 0.00 0.00 0.00 99 1015.5
20260508070225 46 3 0.0 0.0 0.00 0.00 0.00 99 1015.3
20260508065722 46 354 0.0 0.0 0.00 0.00 0.00 99 1015.5
20260508065220 46 354 0.0 0.0 0.00 0.00 0.00 99 1015.3
20260508064717 47 354 0.0 0.0 0.00 0.00 0.00 99 1015.4
20260508064215 47 354 0.0 0.0 0.00 0.00 0.00 99 1015.5
20260508063712 47 344 0.0 0.0 0.00 0.00 0.00 99 1015.3
20260508063210 47 344 0.0 0.0 0.00 0.00 0.00 99 1015.5
20260508062707 47 343 0.0 0.0 0.00 0.00 0.00 99 1015.3
20260508062204 47 5 0.0 0.0 0.00 0.00 0.00 99 1015.3
20260508061701 47 5 0.0 0.0 0.00 0.00 0.00 99 1015.3
20260508061159 47 5 0.0 0.0 0.00 0.00 0.00 99 1015.3
20260508060655 48 342 0.0 0.0 0.00 0.00 0.00 99 1015.3
20260508060153 48 339 0.0 0.0 0.00 0.00 0.00 99 1015.3
20260508055648 48 353 0.0 0.0 0.00 0.00 0.00 99 1015.2
20260508055145 48 351 0.0 0.0 0.00 0.00 0.00 99 1015.2
20260508054641 48 351 0.0 0.0 0.00 0.00 0.00 99 1015.2
20260508054139 47 351 0.0 0.0 0.00 0.00 0.00 99 1015.1
20260508053636 48 351 0.0 0.0 0.00 0.00 0.00 99 1015.0
20260508053133 49 351 0.0 0.0 0.00 0.00 0.00 99 1015.0
20260508052631 48 2 0.0 0.0 0.00 0.00 0.00 99 1015.0
20260508052128 48 2 0.0 0.0 0.00 0.00 0.00 99 1015.0
20260508051623 48 2 0.0 0.0 0.00 0.00 0.00 99 1015.1
20260508051119 48 2 0.0 0.0 0.00 0.00 0.00 99 1015.0
20260508050615 49 2 0.0 0.0 0.00 0.00 0.00 99 1015.2
20260508050113 49 2 0.0 0.0 0.00 0.00 0.00 99 1014.9
20260508045609 49 2 0.0 0.0 0.00 0.00 0.00 99 1015.0
20260508045107 48 4 0.0 0.0 0.00 0.00 0.00 99 1015.0
20260508044604 49 341 0.0 0.0 0.00 0.00 0.00 99 1015.0
20260508044100 50 341 0.0 0.0 0.00 0.00 0.00 99 1014.7
20260508043557 50 341 0.0 0.0 0.00 0.00 0.00 99 1015.0
20260508043054 50 341 0.0 0.0 0.00 0.00 0.00 99 1015.0
20260508042551 50 356 0.0 0.0 0.00 0.00 0.00 99 1014.9
20260508042048 50 354 0.0 0.0 0.00 0.00 0.00 99 1015.0
20260508041544 50 354 0.0 0.0 0.00 0.00 0.00 99 1014.9
20260508041041 51 354 0.0 0.0 0.00 0.00 0.00 99 1015.0
20260508040538 51 7 0.0 0.0 0.00 0.00 0.00 99 1014.8
20260508040036 51 7 0.0 0.0 0.00 0.00 0.00 99 1014.7
20260508035532 50 7 0.0 0.0 0.00 0.69 0.69 99 1014.7
20260508035029 51 356 0.0 0.0 0.00 0.69 0.69 99 1014.6
20260508034526 51 356 0.0 0.0 0.00 0.69 0.69 99 1014.6
20260508034023 51 357 0.0 0.0 0.00 0.69 0.69 99 1014.8
20260508033521 51 355 0.0 0.0 0.00 0.69 0.69 99 1014.7
20260508033019 51 358 0.0 0.0 0.00 0.69 0.69 99 1014.6
20260508032515 51 354 0.0 0.0 0.00 0.69 0.69 99 1014.5
20260508032013 51 7 0.0 0.0 0.00 0.69 0.69 99 1014.7
20260508031510 51 7 0.0 0.0 0.00 0.69 0.69 99 1014.6
20260508031005 52 8 0.0 0.0 0.00 0.69 0.69 99 1014.5
20260508030502 53 5 0.0 0.0 0.00 0.69 0.69 99 1014.5
20260508030000 53 341 0.0 0.0 0.00 0.69 0.69 99 1014.2
20260508025456 53 341 0.0 0.0 0.00 0.69 0.69 99 1014.5
20260508024953 53 338 0.0 0.0 0.00 0.69 0.69 99 1014.5
20260508024449 52 4 0.0 0.0 0.00 0.69 0.69 99 1014.2
20260508023946 53 16 0.0 0.0 0.00 0.69 0.69 99 1013.9
20260508023443 53 357 0.0 0.0 0.00 0.69 0.69 99 1014.2
20260508022941 53 345 0.0 0.0 0.00 0.69 0.69 99 1014.0
20260508022436 54 349 0.0 0.0 0.00 0.69 0.69 99 1014.1
20260508021933 54 358 0.0 0.0 0.00 0.69 0.69 99 1013.9
20260508021429 54 345 0.0 0.0 0.00 0.69 0.69 99 1013.7
20260508020925 54 346 0.0 0.0 0.00 0.69 0.69 99 1013.9
20260508020423 53 344 0.0 0.0 0.00 0.69 0.69 99 1013.8
20260508015920 52 318 0.0 0.0 0.00 0.69 0.69 99 1013.8
20260508015418 52 2 0.0 0.0 0.00 0.69 0.69 99 1013.6
20260508014914 53 2 0.0 0.0 0.00 0.69 0.69 99 1013.4
20260508014412 55 342 0.0 0.0 0.00 0.69 0.69 99 1013.2
20260508013912 55 341 0.0 0.0 0.00 0.69 0.69 99 1013.3
20260508013408 55 341 0.0 0.0 0.00 0.69 0.69 99 1013.1
20260508012906 55 344 0.0 0.0 0.00 0.69 0.69 99 1013.1
20260508012403 55 353 0.0 0.0 0.00 0.69 0.69 99 1013.1
20260508011900 55 343 0.0 0.0 0.00 0.69 0.69 99 1012.8
20260508011359 55 345 0.0 0.0 0.00 0.69 0.69 99 1012.9
20260508010855 56 341 0.0 0.0 0.00 0.69 0.69 99 1012.4
20260508010353 56 341 0.0 0.0 0.00 0.69 0.69 99 1012.6
20260508005849 56 335 0.0 0.0 0.00 0.69 0.69 99 1012.4
20260508005346 56 354 0.0 0.0 0.00 0.69 0.69 99 1012.1
20260508004842 56 351 0.0 0.0 0.00 0.69 0.69 99 1012.2
20260508004338 56 4 0.0 0.0 0.00 0.69 0.69 99 1011.9
20260508003835 56 12 0.9 0.9 0.00 0.69 0.69 99 1012.0
20260508003333 56 1 0.0 0.0 0.00 0.69 0.69 99 1012.0
20260508002830 57 353 0.0 0.0 0.00 0.69 0.69 99 1011.7
20260508002326 57 351 0.0 0.0 0.00 0.69 0.69 99 1011.9
20260508001822 57 353 0.0 0.0 0.00 0.69 0.69 99 1012.0
20260508001318 57 350 0.0 0.0 0.00 0.69 0.69 99 1012.2
20260508000814 57 3 0.0 0.0 0.00 0.69 0.69 99 1011.7
20260508000312 57 9 0.0 0.0 0.00 0.69 0.69 99 1011.7
20260507235808 58 13 0.9 0.9 0.00 0.69 0.69 99 1011.6
20260507235307 58 351 0.9 0.9 0.00 0.69 0.69 99 1011.6
20260507234802 58 18 0.9 1.7 0.00 0.69 0.69 98 1012.1
20260507234259 58 11 0.0 0.0 0.00 0.69 0.69 98 1011.9
20260507233755 58 358 0.0 0.0 0.00 0.69 0.69 99 1011.9
20260507233253 58 8 0.9 0.9 0.00 0.69 0.69 98 1011.7
20260507232751 58 3 0.0 0.0 0.00 0.69 0.69 98 1011.6
20260507232247 58 316 0.0 0.0 0.00 0.69 0.69 99 1011.7
20260507231744 58 9 0.0 0.9 0.00 0.69 0.69 98 1011.5
20260507231241 58 350 0.9 0.9 0.00 0.69 0.69 98 1011.5
20260507230737 59 348 0.0 0.0 0.00 0.69 0.69 98 1011.6
20260507230235 58 348 0.0 0.0 0.00 0.69 0.69 97 1011.3
20260507225734 59 11 0.0 0.0 0.00 0.69 0.69 97 1011.2
20260507225231 59 2 0.9 1.7 0.00 0.69 0.69 97 1011.1
20260507224726 59 6 0.9 1.7 0.00 0.69 0.69 97 1010.9
20260507224224 59 335 1.7 1.7 0.00 0.69 0.69 97 1010.8
20260507223719 59 9 0.9 1.7 0.00 0.69 0.69 98 1010.5
20260507223217 59 18 0.9 0.9 0.00 0.69 0.69 98 1010.5
20260507222713 59 316 0.9 0.9 0.00 0.69 0.69 98 1010.7
20260507222210 59 23 1.7 2.6 0.00 0.69 0.69 97 1010.6
20260507221707 59 19 0.0 0.0 0.00 0.69 0.69 97 1010.8
20260507221203 59 2 0.9 0.9 0.00 0.69 0.69 98 1010.6
20260507220659 59 337 1.7 2.6 0.00 0.69 0.69 98 1010.3
20260507220158 59 15 0.0 0.0 0.00 0.69 0.69 98 1010.4
20260507215653 59 355 0.9 1.7 0.00 0.69 0.69 98 1009.8
20260507215151 59 28 0.9 0.9 0.00 0.69 0.69 98 1010.2
20260507214648 59 356 0.0 0.9 0.19 0.69 0.69 98 1010.2
20260507214145 59 28 1.7 2.6 0.90 0.69 0.69 98 1009.8
20260507213641 59 355 2.6 4.3 0.73 0.65 0.65 97 1010.1
20260507213138 59 19 1.7 1.7 0.12 0.54 0.54 97 1009.8
20260507212634 60 14 3.5 5.2 0.05 0.53 0.53 96 1009.5
20260507212131 60 21 1.7 1.7 0.00 0.52 0.52 95 1009.4
20260507211628 60 26 3.5 4.3 0.00 0.52 0.52 94 1010.0
20260507211123 60 34 2.6 2.6 0.00 0.52 0.52 94 1009.8
20260507210621 61 315 3.5 5.2 0.00 0.52 0.52 94 1009.3
20260507210118 61 4 1.7 1.7 0.00 0.52 0.52 95 1009.5
20260507205614 61 40 3.5 6.1 0.00 0.52 0.52 94 1009.2
20260507205111 61 28 2.6 4.3 0.00 0.52 0.52 96 1009.2
20260507204607 62 43 2.6 5.2 0.00 0.52 0.52 96 1010.0
20260507204105 61 22 3.5 4.3 0.00 0.52 0.52 96 1009.6
20260507203602 61 15 2.6 2.6 0.00 0.52 0.52 98 1009.4
20260507203100 60 7 1.7 1.7 0.00 0.52 0.52 98 1009.4
20260507202555 60 356 4.3 5.2 0.26 0.52 0.52 97 1009.1
20260507202052 60 18 4.3 5.2 0.19 0.51 0.51 97 1009.5
20260507201547 60 29 1.7 2.6 0.00 0.48 0.48 96 1009.6
20260507201044 60 39 4.3 5.2 0.00 0.48 0.48 95 1009.5
20260507200539 61 29 4.3 6.1 0.00 0.48 0.48 92 1009.4
20260507200036 62 344 3.5 4.3 0.00 0.48 0.48 89 1009.0
20260507195533 63 38 5.2 7.0 0.00 0.48 0.48 87 1009.1
20260507195031 64 24 4.3 6.1 0.00 0.48 0.48 86 1008.8
20260507194527 65 32 5.2 7.0 0.00 0.48 0.48 86 1008.6
20260507194023 66 48 3.5 4.3 0.00 0.48 0.48 85 1008.7
20260507193520 71 36 5.2 7.0 0.00 0.48 0.48 81 1008.7
20260507193017 74 314 0.0 0.9 0.00 0.48 0.48 78 1008.4
20260507192513 75 309 0.0 0.9 0.00 0.48 0.48 75 1008.2
20260507192010 74 328 1.7 1.7 0.00 0.48 0.48 75 1008.2
20260507191505 74 278 0.9 1.7 0.00 0.48 0.48 74 1008.4
20260507191003 77 259 0.9 0.9 0.00 0.48 0.48 69 1008.6
20260507190500 77 245 1.7 1.7 0.00 0.48 0.48 68 1008.1
20260507185959 76 305 0.9 1.7 0.00 0.48 0.48 72 1008.0
20260507185456 77 257 2.6 2.6 0.00 0.48 0.48 68 1008.3
20260507184952 75 247 1.7 1.7 0.00 0.48 0.48 75 1008.3
20260507184451 74 301 0.0 0.0 0.00 0.48 0.48 74 1008.2
20260507183948 76 268 0.0 0.9 0.00 0.48 0.48 75 1008.3
20260507183444 74 262 0.0 0.0 0.00 0.48 0.48 75 1008.7
20260507182942 74 254 0.9 1.7 0.00 0.48 0.48 80 1008.8
20260507182438 74 329 0.0 0.0 0.00 0.48 0.48 78 1008.6
20260507181934 73 284 0.9 0.9 0.00 0.48 0.48 77 1008.5
20260507181430 73 229 2.6 2.6 0.00 0.48 0.48 75 1008.7
20260507180927 73 301 0.0 0.9 0.00 0.48 0.48 81 1008.6
20260507180424 75 351 0.0 0.9 0.00 0.48 0.48 75 1009.0
20260507175920 75 295 1.7 1.7 0.00 0.48 0.48 74 1008.8
20260507175417 75 328 0.9 1.7 0.00 0.48 0.48 79 1009.0
20260507174914 74 197 0.9 1.7 0.00 0.48 0.48 79 1009.1
20260507174411 73 270 0.0 0.9 0.00 0.48 0.48 81 1009.2
20260507173909 74 295 0.9 0.9 0.00 0.48 0.48 83 1009.1
20260507173406 72 324 0.0 0.0 0.00 0.48 0.48 82 1009.0
20260507172902 70 303 0.0 0.9 0.00 0.48 0.48 88 1009.0
20260507172359 70 300 0.0 0.9 0.00 0.48 0.48 86 1009.4
20260507171855 71 287 0.0 0.9 0.00 0.48 0.48 85 1009.3
20260507171352 72 297 0.9 0.9 0.00 0.48 0.48 87 1009.5
20260507170849 72 268 0.0 0.9 0.00 0.48 0.48 87 1009.7
20260507170345 72 50 1.7 1.7 0.00 0.48 0.48 84 1009.6
20260507165841 72 320 0.0 0.0 0.00 0.48 0.48 88 1009.8
20260507165337 72 274 1.7 1.7 0.00 0.48 0.48 89 1009.8
20260507164834 71 321 0.0 0.0 0.00 0.48 0.48 82 1009.6
20260507164331 70 359 0.0 0.0 0.00 0.48 0.48 90 1009.7
20260507163828 70 298 0.0 0.0 0.00 0.48 0.48 90 1009.8
20260507163325 70 321 0.0 0.0 0.00 0.48 0.48 90 1009.8
20260507162821 69 331 0.0 0.0 0.00 0.48 0.48 93 1009.6
20260507162317 69 312 0.0 0.0 0.00 0.48 0.48 92 1010.0
20260507161814 69 321 0.0 0.0 0.00 0.48 0.48 93 1010.1
20260507161311 69 320 0.0 0.0 0.00 0.48 0.48 92 1010.0
20260507160807 70 316 0.0 0.0 0.00 0.48 0.48 91 1009.5
20260507160303 71 322 0.0 0.0 0.00 0.48 0.48 93 1009.6
20260507155759 69 321 0.0 0.0 0.00 0.48 0.48 93 1009.5
20260507155255 69 306 0.0 0.9 0.00 0.48 0.48 93 1009.4
20260507154752 69 306 0.9 0.9 0.00 0.48 0.48 95 1009.2
20260507154250 68 36 0.0 0.0 0.00 0.48 0.48 97 1009.4
20260507153746 67 324 0.0 0.0 0.00 0.48 0.48 97 1009.6
20260507153243 66 331 0.0 0.0 0.00 0.48 0.48 97 1009.6
20260507152739 66 332 0.0 0.0 0.00 0.48 0.48 99 1009.7
20260507152236 65 340 0.0 0.0 0.00 0.48 0.48 99 1009.6
20260507151731 65 336 0.0 0.0 0.05 0.48 0.48 99 1010.3
20260507151228 65 314 0.0 0.0 0.00 0.47 0.47 99 1010.2
20260507150725 65 351 0.0 0.0 0.00 0.47 0.47 99 1009.8
20260507150222 65 337 0.0 0.0 0.00 0.47 0.47 99 1010.5
20260507145718 65 332 0.0 0.0 0.00 0.47 0.47 99 1010.5
20260507145215 65 338 0.0 0.0 0.00 0.47 0.47 99 1010.1
20260507144712 65 311 0.0 0.9 0.00 0.47 0.47 99 1010.7
20260507144210 65 336 0.0 0.0 0.00 0.47 0.47 99 1010.8
20260507143706 65 313 0.0 0.0 0.00 0.47 0.47 99 1011.0
20260507143203 64 303 0.0 0.9 0.07 0.47 0.47 99 1010.8
20260507142658 64 316 0.0 0.9 0.07 0.47 0.47 99 1010.7
20260507142155 65 313 0.0 0.0 0.00 0.46 0.46 99 1010.6
20260507141652 65 323 0.0 0.0 0.00 0.46 0.46 99 1010.3
20260507141149 65 327 0.0 0.0 0.00 0.46 0.46 99 1010.0
20260507140645 64 331 0.0 0.0 0.00 0.46 0.46 99 1010.2
20260507140143 64 334 0.0 0.0 0.00 0.46 0.46 99 1010.2
20260507135640 64 349 0.0 0.0 0.00 0.46 0.46 99 1009.8
20260507135137 64 326 0.0 0.0 0.00 0.46 0.46 99 1010.5
20260507134633 64 325 0.0 0.0 0.05 0.46 0.46 99 1010.6
20260507134130 64 342 0.0 0.0 0.05 0.46 0.46 99 1010.4
20260507133625 64 351 0.0 0.0 0.00 0.45 0.45 99 1010.1
20260507133123 64 341 0.0 0.0 0.00 0.45 0.45 99 1010.4
20260507132620 64 335 0.0 0.0 0.00 0.45 0.45 99 1010.0
20260507132116 64 331 0.0 0.0 0.07 0.45 0.45 99 1009.7
20260507131613 63 314 0.0 0.0 0.07 0.45 0.45 99 1009.7
20260507131111 63 334 0.0 0.0 0.00 0.44 0.44 99 1009.4
20260507130607 63 2 0.0 0.0 0.00 0.44 0.44 99 1009.7
20260507130105 63 6 0.0 0.0 0.00 0.44 0.44 99 1009.7